Simultaneous Nadir Overpasses (SNOs) Predictions

Prediction of SNOs between GOES-14 and NOAA-20 Satellite Orbit:

Table of predicted SNOs for the next 14.0 days since TLE Epoch: 7/23/2021
Index Date Time (GOES-14) GOES-14 Lat,Lon NOAA-20 Lat,Lon Distance(km) Time Diff (sec)
1 07/23/2021 20:05:17 0.24,-104.35 1.23,-100.03 493.25 80
2 07/25/2021 08:24:24 -0.28,-104.12 -0.03,-105.29 133.59 80
3 07/26/2021 08:08:19 -0.26,-104.12 -0.99,-100.75 383.15 80
4 07/27/2021 20:27:37 0.29,-104.35 -0.08,-106.08 196.71 80
5 07/28/2021 20:11:32 0.28,-104.36 0.89,-101.54 321.01 80
6 07/30/2021 08:33:20 -0.32,-104.15 0.26,-106.82 303.62 80
7 07/31/2021 08:12:11 -0.29,-104.15 -0.71,-102.28 213.29 63
8 08/01/2021 20:33:52 0.33,-104.38 -0.42,-107.60 368.00 80
9 08/02/2021 20:17:47 0.32,-104.38 0.61,-103.07 149.64 80
10 08/04/2021 08:39:35 -0.36,-104.19 0.54,-108.35 473.49 80
11 08/05/2021 08:18:10 -0.34,-104.18 -0.42,-103.81 43.01 80
